User: anonymous   Login
Location: Emblem
(62.4273°N, 6.4710°E)
Time: 14:46:43
(UTC+02:00)
Language:

A-11 Canister half - Orbit

View from above orbital plane
View from above orbital plane
View from above satellite
View from above satellite

Ground track
Ground track

The orbit data is extracted from the following two-line orbital elements,

1 00051U 60009C   24205.87028467 -.00000140  00000-0 -53739-3 0  9993
2 00051  47.2148  34.6601 0106213 295.2947  63.6869 12.18329490846640
Epoch (UTC): 23 July 2024 20:53:12
Eccentricity: 0.0106213
inclination: 47.2148°
perigee height: 1515 km
apogee height: 1684 km
right ascension of ascending node: 34.6601°
argument of perigee: 295.2947°
revolutions per day: 12.18329490
mean anomaly at epoch: 63.6869°
orbit number at epoch: 84664

The dashed part of the orbit path shows where the satellite is in the earth's shadow,  

DLR